Weather History for KGPH - March, 2013

Change the Weather History Date:

Sunday, March 31, 2013

  Actual Average (KMCI) Record (KMCI)
Temperature  
Mean Temperature 52 °F 50 °F  
Max Temperature 62 °F 61 °F 89 °F (1946)
Min Temperature 41 °F 38 °F 17 °F (1923)
Degree Days  
Heating Degree Days 14 16  
Month to date heating degree days 647  
Since 1 July heating degree days 4691  
Cooling Degree Days 0 0  
Month to date cooling degree days 3  
Year to date cooling degree days 3  
Growing Degree Days 2 (Base 50)    
Moisture  
Dew Point 41 °F    
Average Humidity 69    
Maximum Humidity 100    
Minimum Humidity 29    
Precipitation  
Precipitation 0.00 in 0.10 in 2.23 in (1929)
Month to date precipitation 2.37  
Year to date precipitation 4.90  
Snow  
Snow 0.00 in 0.00 in 2.50 in (1972)
Month to date snowfall 2.0  
Since 1 July snowfall 18.2  
Snow Depth -    
Sea Level Pressure  
Sea Level Pressure 29.95 in    
Wind  
Wind Speed 4 mph (NW)    
Max Wind Speed 21 mph    
Max Gust Speed 25 mph    
Visibility 8 miles    
Events Fog    
T = Trace of Precipitation, MM = Missing Value Source: NWS Daily Summary

Daily Weather History Graph

Daily Weather History Graph

Search for Another Location

Airport or City:

Trip Planner

Search our weather history database for the weather conditions in past years. The results will help you decide how hot, cold, wet, or windy it might be!

Date:

Astronomy

Mar. 31, 2013 Rise Set
Actual Time 7:02 AM CDT 7:40 PM CDT
Civil Twilight 6:35 AM CDT 8:07 PM CDT
Nautical Twilight 6:03 AM CDT 8:39 PM CDT
Astronomical Twilight 5:31 AM CDT 9:12 PM CDT
Moon No Moon Rise 9:52 AM CDT (3/31)
Length of Visible Light 13h 31m
Length of Day
12h 37m
Waning Gibbous, 77% of the Moon is Illuminated
Mar 31
Waning Gibbous
Apr 2
Last Quarter
Apr 10
New
Apr 18
First Quarter
Apr 25
Full

Hourly Weather History & Observations

Time (CDT) Temp. Windchill Dew Point Humidity Pressure Visibility Wind Dir Wind Speed Gust Speed Precip Events Conditions
12:15 AM 50.0 °F - 50.0 °F 100% 29.92 in 3.0 mi Calm Calm - N/A   Overcast
12:35 AM 50.0 °F - 50.0 °F 100% 29.92 in 2.0 mi Calm Calm - N/A   Mostly Cloudy
12:55 AM 50.0 °F - 50.0 °F 100% 29.93 in 2.0 mi Calm Calm - N/A   Mostly Cloudy
1:15 AM 50.0 °F - 50.0 °F 100% 29.93 in 2.5 mi Calm Calm - N/A   Overcast
1:35 AM 50.0 °F - 48.2 °F 94% 29.94 in 2.0 mi Calm Calm - N/A   Overcast
1:55 AM 50.0 °F - 50.0 °F 100% 29.95 in 2.0 mi WNW 3.5 mph - N/A   Overcast
2:15 AM 50.0 °F - 50.0 °F 100% 29.95 in 0.2 mi Calm Calm - N/A Fog Fog
2:35 AM 50.0 °F - 50.0 °F 100% 29.95 in 0.2 mi Calm Calm - N/A Fog Fog
2:55 AM 50.0 °F - 50.0 °F 100% 29.94 in 0.2 mi Calm Calm - N/A Fog Fog
3:15 AM 50.0 °F - 50.0 °F 100% 29.94 in 0.2 mi Calm Calm - N/A Fog Fog
3:35 AM 50.0 °F - 50.0 °F 100% 29.94 in 0.2 mi Calm Calm - N/A Fog Fog
3:55 AM 50.0 °F - 50.0 °F 100% 29.93 in 0.2 mi Calm Calm - N/A Fog Fog
4:15 AM 48.2 °F - 48.2 °F 100% 29.93 in 0.2 mi West 3.5 mph - N/A Fog Fog
4:35 AM 50.0 °F - 50.0 °F 100% 29.93 in 2.5 mi NNW 4.6 mph - N/A   Mostly Cloudy
4:55 AM 50.0 °F - 50.0 °F 100% 29.93 in 3.0 mi NNW 3.5 mph - N/A   Scattered Clouds
5:15 AM 50.0 °F - 50.0 °F 100% 29.93 in 4.0 mi Calm Calm - N/A   Mostly Cloudy
5:35 AM 50.0 °F - 50.0 °F 100% 29.93 in 7.0 mi WNW 3.5 mph - N/A   Scattered Clouds
5:55 AM 48.2 °F - 48.2 °F 100% 29.94 in 7.0 mi Calm Calm - N/A   Clear
6:15 AM 46.4 °F - 46.4 °F 100% 29.95 in 7.0 mi Calm Calm - N/A   Clear
6:35 AM 46.4 °F - 46.4 °F 100% 29.95 in 7.0 mi Calm Calm - N/A   Clear
6:55 AM 46.4 °F - 44.6 °F 93% 29.95 in 10.0 mi Calm Calm - N/A   Clear
7:15 AM 44.6 °F - 44.6 °F 100% 29.96 in 7.0 mi Calm Calm - N/A   Clear
7:35 AM 42.8 °F - 42.8 °F 100% 29.97 in 5.0 mi Calm Calm - N/A   Clear
7:55 AM 42.8 °F - 42.8 °F 100% 29.97 in 5.0 mi Calm Calm - N/A   Clear
8:15 AM 44.6 °F - 44.6 °F 100% 29.97 in 7.0 mi Calm Calm - N/A   Clear
8:35 AM 46.4 °F - 44.6 °F 93% 29.96 in 10.0 mi Calm Calm - N/A   Clear
8:55 AM 50.0 °F - 44.6 °F 82% 29.95 in 10.0 mi Calm Calm - N/A   Clear
9:15 AM 51.8 °F - 44.6 °F 76% 29.95 in 10.0 mi Calm Calm - N/A   Clear
9:55 AM 55.4 °F - 44.6 °F 67% 29.94 in 10.0 mi NW 9.2 mph - N/A   Clear
10:15 AM 55.4 °F - 42.8 °F 63% 29.94 in 10.0 mi NW 9.2 mph - N/A   Clear
10:35 AM 57.2 °F - 42.8 °F 59% 29.93 in 10.0 mi NW 12.7 mph 20.7 mph N/A   Clear
10:55 AM 59.0 °F - 42.8 °F 55% 29.93 in 10.0 mi NW 10.4 mph 16.1 mph N/A   Unknown
11:15 AM 59.0 °F - 42.8 °F 55% 29.93 in 10.0 mi NW 9.2 mph - N/A   Clear
11:35 AM 60.8 °F - 41.0 °F 48% 29.93 in 10.0 mi NW 13.8 mph 17.3 mph N/A   Clear
11:55 AM 60.8 °F - 42.8 °F 52% 29.93 in 10.0 mi NW 12.7 mph 18.4 mph N/A   Clear
12:15 PM 62.6 °F - 42.8 °F 48% 29.93 in 10.0 mi NW 15.0 mph 19.6 mph N/A   Scattered Clouds
12:35 PM 60.8 °F - 44.6 °F 55% 29.94 in 10.0 mi NNW 17.3 mph 21.9 mph N/A   Unknown
12:55 PM 60.8 °F - 42.8 °F 52% 29.95 in 10.0 mi NW 12.7 mph 24.2 mph N/A   Scattered Clouds
1:15 PM 60.8 °F - 42.8 °F 52% 29.95 in 10.0 mi WNW 10.4 mph 18.4 mph N/A   Scattered Clouds
1:35 PM 60.8 °F - 42.8 °F 52% 29.94 in 10.0 mi NW 11.5 mph 18.4 mph N/A   Scattered Clouds
1:55 PM 60.8 °F - 41.0 °F 48% 29.94 in 10.0 mi NW 15.0 mph 20.7 mph N/A   Scattered Clouds
2:15 PM 60.8 °F - 41.0 °F 48% 29.94 in 10.0 mi WNW 12.7 mph 18.4 mph N/A   Scattered Clouds
2:35 PM 60.8 °F - 37.4 °F 42% 29.94 in 10.0 mi NW 15.0 mph 19.6 mph N/A   Scattered Clouds
2:55 PM 60.8 °F - 35.6 °F 39% 29.94 in 10.0 mi NW 20.7 mph 25.3 mph N/A   Scattered Clouds
3:15 PM 60.8 °F - 32.0 °F 34% 29.95 in 10.0 mi NW 12.7 mph 23.0 mph N/A   Clear
3:35 PM 60.8 °F - 33.8 °F 36% 29.95 in 10.0 mi NW 12.7 mph 21.9 mph N/A   Clear
3:55 PM 60.8 °F - 32.0 °F 34% 29.95 in 10.0 mi NNW 12.7 mph 21.9 mph N/A   Clear
4:15 PM 60.8 °F - 32.0 °F 34% 29.95 in 10.0 mi WNW 15.0 mph 23.0 mph N/A   Clear
4:35 PM 60.8 °F - 32.0 °F 34% 29.95 in 10.0 mi NW 16.1 mph 24.2 mph N/A   Clear
4:55 PM 60.8 °F - 32.0 °F 34% 29.95 in 10.0 mi NNW 12.7 mph 20.7 mph N/A   Clear
5:15 PM 60.8 °F - 30.2 °F 31% 29.95 in 10.0 mi NNW 11.5 mph 16.1 mph N/A   Unknown
5:35 PM 60.8 °F - 28.4 °F 29% 29.95 in 10.0 mi NNW 15.0 mph 19.6 mph N/A   Clear
5:55 PM 60.8 °F - 30.2 °F 31% 29.94 in 10.0 mi NW 10.4 mph - N/A   Clear
6:15 PM 60.8 °F - 32.0 °F 34% 29.94 in 10.0 mi North 13.8 mph - N/A   Unknown
6:35 PM 59.0 °F - 30.2 °F 34% 29.95 in 10.0 mi NNW 10.4 mph 19.6 mph N/A   Clear
6:55 PM 59.0 °F - 30.2 °F 34% 29.95 in 10.0 mi NW 8.1 mph - N/A   Clear
7:15 PM 59.0 °F - 30.2 °F 34% 29.96 in 10.0 mi NNW 6.9 mph - N/A   Clear
7:35 PM 55.4 °F - 30.2 °F 38% 29.96 in 10.0 mi Calm Calm - N/A   Unknown
7:55 PM 53.6 °F - 32.0 °F 44% 29.96 in 10.0 mi Calm Calm - N/A   Clear
8:15 PM 51.8 °F - 32.0 °F 47% 29.96 in 10.0 mi Calm Calm - N/A   Clear
8:35 PM 51.8 °F - 30.2 °F 44% 29.96 in 10.0 mi Calm Calm - N/A   Clear
8:55 PM 50.0 °F - 32.0 °F 50% 29.96 in 10.0 mi Calm Calm - N/A   Clear
9:15 PM 48.2 °F - 33.8 °F 58% 29.96 in 10.0 mi Calm Calm - N/A   Clear
9:35 PM 44.6 °F - 35.6 °F 71% 29.97 in 10.0 mi Calm Calm - N/A   Clear
9:55 PM 44.6 °F - 33.8 °F 66% 29.97 in 10.0 mi Calm Calm - N/A   Clear
10:15 PM 42.8 °F - 33.8 °F 70% 29.97 in 10.0 mi Calm Calm - N/A   Mostly Cloudy
10:35 PM 42.8 °F - 33.8 °F 70% 29.98 in 10.0 mi Calm Calm - N/A   Mostly Cloudy
10:55 PM 41.0 °F - 35.6 °F 81% 29.98 in 10.0 mi Calm Calm - N/A   Clear
11:15 PM 41.0 °F - 33.8 °F 76% 29.99 in 10.0 mi Calm Calm - N/A   Clear
11:35 PM 41.0 °F 39.0 °F 33.8 °F 76% 29.99 in 10.0 mi NNW 3.5 mph - N/A   Clear
11:55 PM 41.0 °F 38.0 °F 32.0 °F 70% 30.01 in 10.0 mi North 4.6 mph - N/A   Clear